Погода в Кобре

Россия / Кировская область     59°46′19″N   50°50′50″E
темп.,
°C
ветер,
м/с
пор.,
м/с
влажн.,
%
обл.,
%
осадки,
мм/ч
давл.,
гПа
погр.,
м
29 января, сб
сб2900:00−13ю31196100 0.0 1017335
03:00−12ю3109696 0.1 1017281
06:00−11ю3109696 0.1 1016274
09:00−9ююв3119597 0.1 1016334
12:00−7ю31091100 0.1 1015532
15:00−7ююв399398 0.1 1014476
18:00−8ююв399584 0.1 1013346
21:00−11ююв3997100 0.1 1012246
30 января, вс
вс3000:00−12ююв2797100 0.0 1011190
03:00−14юв259888 0.0 1010100
06:00−16юв269881 0.0 100992
09:00−13юв279677 0.0 1008197
12:00−9ююв3690100 0.0 1008346
15:00−9юв2595100 0.1 1008215
18:00−11юв289779 0.1 1009204
21:00−14юв259982 0.1 100979
31 января, пн
пн3100:00−15вюв239982 0.0 101052
03:00−16юв2510091 0.1 101071
06:00−17вюв2410094 0.0 101161
09:00−15юв279991 0.1 1012132
12:00−9юв2592100 0.0 1011257
15:00−8вюв269692 0.1 1011171
18:00−10вюв3109893 0.0 1012214
21:00−11вюв399896 0.1 1011208
1 февраля, вт
вт100:00−11вюв31097100 0.1 1011296
03:00−7вюв41394100 0.3 1008585
06:00−6юв41294100 0.5 1007540
09:00−5юв4139498 0.9 1006577
12:00−2юв51394100 0.4 1004743
15:00−1ююв51295100 1.1 1003960
18:00−1ююв51296100 0.6 1002766
21:00−2ю51195100 1.3 1002856
2 февраля, ср
ср200:00−3ююв2798100 0.6 1002297
03:00−3ю41095100 1.3 1003655
06:00−4ю41095100 0.3 1004697
09:00−4ююз41093100 0.8 1006778
12:00−5ююз4989100 0.1 1009790
15:00−6ююз4990100 0.3 1011713
18:00−8ю41093100 0.1 1013453
21:00−9ююв41194100 0.1 1014420